Theta_e
282 282 282 282 282 283 282 283 282 282 282 281 281 281 280 281 280 279 279 279 279 279 279 279 279 279 279 279 278 278 278 277 277 277 276 276 276 275 275 275 275 275
282 281 282 282 282 282 282 281 282 281 282 282 282 282 281 281 280 279 279 279 279 279 279 279 279 279 279 279 278 278 278 277 277 278 276 276 276 276 275 275 275 276
281 281 281 281 281 281 281 282 281 281 282 282 282 281 282 282 281 279 279 279 279 278 279 279 279 279 279 279 278 278 278 277 277 277 277 276 276 276 276 276 276 275
280 280 280 281 281 281 282 281 281 281 281 281 282 283 283 283 282 280 279 279 279 279 279 279 279 279 279 279 279 278 278 278 278 278 277 277 277 276 276 276 276 276
280 280 280 279 280 280 280 280 281 281 281 282 282 281 281 281 281 281 280 279 279 279 279 278 279 279 279 278 278 278 278 278 278 278 277 277 277 277 276 276 276 275
280 280 280 280 280 280 279 279 280 280 280 280 281 281 281 281 280 281 280 280 279 279 279 279 278 278 278 278 278 278 278 278 278 277 277 277 277 277 277 276 276 275
278 279 279 280 280 280 279 279 279 280 280 280 280 280 280 280 280 280 280 280 280 279 279 278 278 278 278 278 278 277 278 278 278 277 277 277 277 277 277 276 276 275
276 277 278 278 278 279 279 279 279 280 280 280 280 280 280 280 280 280 280 280 280 280 279 279 278 278 278 278 277 277 277 278 277 277 277 277 277 276 277 276 276 275
276 276 276 276 276 277 277 277 278 278 279 279 279 280 280 280 280 280 280 280 280 280 280 279 279 278 278 278 278 277 277 277 277 277 277 277 276 276 276 277 276 275
275 275 275 276 275 276 276 276 276 277 277 277 278 278 278 279 280 280 280 280 280 280 280 280 279 279 279 278 278 278 277 277 278 277 277 277 277 276 277 276 276 275
274 275 275 275 275 275 275 276 276 276 276 276 276 276 277 277 278 279 279 279 279 280 280 280 280 280 279 278 278 278 278 278 277 278 277 277 277 277 277 276 276 275
273 273 274 274 274 274 274 274 275 275 275 275 276 275 275 276 276 276 277 277 278 278 279 279 280 280 280 279 278 278 278 278 278 277 277 277 277 277 277 277 276 276
272 272 273 272 273 273 273 273 273 273 274 274 275 274 274 274 274 275 275 276 276 277 277 278 278 279 279 278 278 278 277 277 277 277 277 277 277 277 277 277 276 276
271 271 272 271 271 272 272 272 272 272 272 273 273 273 273 273 273 273 274 274 274 275 275 276 276 276 277 277 277 277 277 277 277 276 276 277 277 277 277 277 276 276
270 271 271 270 270 270 270 270 271 271 271 271 272 272 272 272 273 273 273 273 273 274 274 275 274 274 275 275 276 276 276 276 276 276 276 276 276 276 276 277 277 277
269 269 269 269 269 269 269 269 269 269 270 270 270 270 271 271 271 272 272 271 271 272 273 273 273 274 275 278 279 278 277 276 276 276 276 276 276 276 276 276 276 276
268 268 268 268 268 268 268 268 268 268 268 268 268 269 269 269 270 270 270 270 270 270 270 271 272 273 276 278 279 280 279 277 276 276 276 275 275 275 275 275 275 276
267 267 266 267 267 267 267 267 267 267 267 267 267 267 268 268 268 268 268 269 269 269 269 270 270 273 276 278 279 279 279 278 277 276 275 275 275 275 275 275 275 275
266 265 265 266 266 266 266 266 265 265 265 265 265 266 267 266 267 267 267 267 267 267 267 268 269 272 276 277 278 278 279 278 277 277 276 275 275 275 274 274 274 274
264 264 264 265 266 266 265 264 264 264 264 265 265 266 265 265 266 266 266 266 266 266 266 266 267 271 275 276 277 277 278 277 276 275 275 275 274 274 274 274 274 274
263 263 263 264 265 265 263 263 263 262 263 264 264 264 264 264 264 263 264 265 264 264 264 265 266 272 274 275 276 276 277 275 273 273 273 273 273 273 273 273 273 273
262 262 263 264 264 264 262 262 262 261 261 263 263 263 263 263 263 263 263 263 263 263 263 263 265 271 272 274 275 275 275 272 272 271 270 271 271 271 272 273 273 273
261 262 262 263 263 263 261 261 261 261 261 262 261 262 262 262 262 262 263 262 262 262 262 262 262 267 271 272 274 275 273 270 270 269 269 269 269 269 269 270 270 271
261 261 261 262 262 261 260 260 260 261 260 261 260 260 260 260 261 261 261 261 261 260 262 261 261 264 269 271 273 273 272 269 268 267 267 267 267 268 268 268 269 271
260 260 260 260 260 259 259 258 259 259 260 260 259 258 259 259 260 259 259 260 260 261 263 261 260 262 266 270 271 272 271 268 267 266 265 265 266 266 267 267 267 268
259 259 259 259 259 258 258 258 258 258 258 258 258 258 258 258 258 257 257 259 260 260 260 260 259 260 263 269 270 271 271 268 266 264 264 264 264 265 264 264 265 265
Wind_Speed
6 4 6 5 6 6 6 7 6 7 7 6 8 9 10 10 7 9 11 10 11 12 12 12 12 12 11 11 12 11 11 13 12 11 12 13 13 14 14 15 14 14
6 5 5 5 6 5 6 5 6 5 6 6 7 7 7 7 8 8 10 10 11 12 12 12 12 13 12 11 12 12 12 11 13 10 12 15 14 13 16 16 15 15
4 5 5 6 7 7 7 6 5 6 7 8 7 7 8 7 8 8 9 10 11 12 12 12 12 12 12 12 12 12 12 12 14 12 12 15 13 13 14 13 13 15
6 5 5 6 6 6 6 5 6 6 6 7 8 8 7 7 6 7 9 10 10 11 11 11 13 12 12 13 12 12 13 13 13 11 13 12 12 13 14 12 13 14
7 7 6 6 6 5 5 5 7 7 7 8 7 7 7 7 7 8 8 9 10 11 10 12 11 12 12 11 12 12 12 12 12 11 12 14 13 12 13 12 14 15
8 7 7 6 6 5 6 5 6 6 7 7 8 7 6 7 8 8 8 9 9 10 11 10 11 11 11 12 11 12 12 11 12 12 14 15 13 12 11 12 14 15
10 9 10 8 8 7 6 6 6 6 6 7 6 6 6 7 7 8 8 9 9 10 10 10 11 11 10 10 11 13 12 13 12 12 15 14 13 14 14 13 14 15
9 8 8 8 9 8 8 8 7 7 8 7 7 7 6 8 8 7 7 8 8 10 10 10 10 11 10 10 12 13 13 11 12 13 14 15 13 14 15 12 13 15
8 8 8 9 9 8 9 9 9 8 8 8 8 8 7 7 8 7 8 7 8 9 9 9 10 10 10 10 12 13 14 13 12 13 15 15 15 16 15 13 14 15
12 11 12 12 11 9 10 9 9 8 8 8 8 7 8 7 7 7 7 7 7 8 8 8 9 9 10 11 13 13 13 14 14 14 14 15 15 15 15 14 14 15
13 12 12 13 13 11 12 11 10 9 8 8 8 8 8 7 7 7 7 7 7 7 7 8 8 9 10 11 11 11 13 13 13 13 13 14 14 15 14 14 14 15
11 11 11 12 12 11 12 11 11 10 10 9 9 9 8 7 8 7 7 8 8 8 7 7 7 7 8 9 10 11 12 12 12 12 13 13 13 13 13 13 14 15
11 11 11 11 10 10 10 10 10 10 10 10 10 9 9 8 8 8 7 7 8 7 7 7 8 7 7 7 7 9 10 11 12 12 12 12 12 13 13 13 14 14
10 11 10 11 11 11 11 11 10 10 10 10 9 9 9 9 9 9 7 6 7 6 6 6 6 6 6 6 6 6 7 9 10 11 11 12 12 12 12 12 13 14
11 10 9 10 10 10 10 10 10 9 9 9 8 8 7 8 8 8 8 8 7 7 7 6 5 5 5 6 6 7 6 7 8 9 10 11 11 11 12 12 12 12
10 9 9 10 10 10 10 10 10 10 9 9 9 8 7 7 7 7 6 7 7 7 7 6 6 5 8 13 11 7 6 6 7 7 8 9 10 10 10 10 11 10
10 10 10 10 9 9 9 10 11 10 9 9 9 8 8 8 8 7 7 6 6 6 7 6 6 6 14 14 13 14 9 6 6 7 7 7 8 9 10 10 9 9
9 10 10 10 10 11 11 10 10 9 9 9 8 9 9 8 8 7 7 6 6 6 6 6 6 11 16 15 15 15 12 8 6 5 6 7 7 8 8 8 8 8
12 12 12 11 11 11 10 10 10 10 10 10 10 9 8 8 9 8 8 8 7 8 8 7 7 13 15 16 15 15 15 12 6 6 6 6 7 7 8 8 7 7
11 12 12 12 11 11 10 10 10 10 9 8 8 8 8 8 7 8 8 7 7 7 6 6 7 12 16 16 15 15 14 12 6 8 7 6 6 7 7 7 8 8
11 12 12 12 11 10 9 9 9 9 9 8 7 8 8 7 7 6 7 6 6 6 5 6 6 15 16 16 15 15 15 11 7 8 7 7 7 6 7 7 7 7
11 12 11 11 10 8 8 8 8 8 8 8 7 7 6 6 6 5 6 7 6 7 6 7 7 16 17 17 17 16 16 8 7 8 7 7 7 8 8 7 6 6
10 10 10 10 9 8 7 7 7 8 7 6 6 6 7 7 6 6 6 5 6 7 6 6 6 12 17 17 16 18 11 6 7 6 6 6 6 7 6 7 7 7
8 9 10 9 9 8 8 7 7 5 5 5 5 6 6 6 5 6 5 4 4 6 6 5 7 10 16 16 17 17 14 6 6 5 6 6 6 6 5 5 7 11
6 7 8 9 8 8 7 8 7 6 6 5 5 4 5 4 5 5 5 4 4 4 8 7 6 9 15 16 17 16 12 5 5 4 5 6 6 6 5 5 6 6
6 7 7 7 8 8 8 7 6 6 6 6 6 4 5 5 4 4 5 6 5 5 5 4 6 7 10 17 16 16 16 8 3 5 6 6 6 5 5 5 6 6
Wind_Direction
274 262 255 253 248 243 246 242 235 234 235 228 225 228 225 232 221 216 217 217 217 219 218 219 219 220 220 218 217 219 220 221 222 218 217 218 223 221 223 222 219 222
264 260 257 256 259 252 250 243 255 243 248 239 236 238 239 232 226 217 219 219 219 222 220 220 219 219 218 217 216 217 223 220 224 214 218 220 223 220 226 223 221 225
285 275 264 253 252 254 249 247 240 242 241 243 242 234 238 229 231 217 221 218 221 222 221 221 221 220 218 218 216 218 222 220 224 216 218 224 221 223 226 222 225 224
306 286 274 267 260 261 261 259 254 250 251 253 246 247 242 242 231 226 222 220 223 225 221 221 221 221 219 219 216 222 223 223 224 217 222 229 224 224 227 221 224 226
327 319 308 296 289 285 286 275 270 264 257 255 261 252 247 244 235 235 225 224 223 228 224 223 222 222 219 220 217 224 224 225 224 216 223 228 225 220 226 221 224 227
355 348 337 327 316 314 306 294 287 287 282 278 265 264 255 247 242 241 234 232 228 227 229 226 223 222 218 219 218 224 225 223 224 214 224 229 227 219 223 221 223 227
358 358 356 352 348 343 333 320 310 299 293 282 288 278 266 260 253 246 242 239 237 231 230 228 225 224 217 218 220 226 226 226 225 217 223 230 227 225 223 221 222 227
360 357 360 359 360 357 357 345 339 329 319 318 306 298 291 279 272 262 251 247 242 241 236 232 230 228 221 215 222 226 229 224 225 222 224 230 225 229 225 220 222 227
359 3 1 4 4 1 1 355 352 346 341 339 330 323 317 298 290 282 271 262 256 252 246 241 236 233 227 221 225 227 228 228 224 223 225 229 227 228 227 220 223 227
1 359 0 1 2 359 359 355 352 351 345 346 342 340 335 324 312 301 286 275 269 263 255 250 243 237 233 228 229 229 229 231 229 226 227 229 230 230 228 222 223 227
359 359 356 356 354 351 351 349 349 347 345 343 342 343 340 336 334 334 326 316 302 289 279 268 257 246 240 237 235 233 233 233 232 230 230 231 231 231 229 224 224 227
355 353 351 350 346 345 345 344 342 343 341 341 341 339 338 340 338 339 336 329 327 319 311 303 291 276 258 247 241 237 236 237 236 234 233 234 234 233 231 226 226 228
350 348 346 343 342 339 338 339 339 337 338 337 336 334 335 337 338 334 333 334 327 330 327 322 317 306 294 278 259 245 240 239 239 238 237 236 236 235 232 229 228 229
345 340 341 341 337 338 338 339 337 336 336 333 332 336 335 335 334 331 326 333 328 331 329 329 326 326 320 312 296 275 259 247 242 241 241 239 240 238 235 232 230 230
338 338 336 336 334 334 336 334 333 330 329 328 330 331 330 326 326 328 327 331 333 333 333 333 333 331 332 323 316 303 284 272 261 254 248 246 244 243 240 237 234 233
332 332 333 334 333 336 335 335 333 333 332 332 334 330 326 324 324 323 326 328 332 331 333 332 330 328 323 322 319 309 288 270 265 259 256 253 251 250 248 242 238 236
333 333 336 332 333 334 334 337 336 334 334 334 335 333 331 332 330 330 337 332 333 332 331 328 328 323 326 326 323 317 310 293 267 262 254 252 252 252 253 250 245 240
332 333 335 334 336 341 339 337 336 334 335 336 334 335 336 332 334 337 334 334 335 333 334 330 332 327 331 328 325 320 316 305 289 269 260 254 251 251 253 254 252 247
336 338 337 337 339 340 339 338 338 338 338 340 338 333 334 337 336 340 339 341 342 342 340 335 335 327 332 331 329 327 322 319 308 296 276 265 259 254 249 248 248 247
334 335 334 333 334 336 338 337 336 337 333 329 330 333 336 333 336 341 338 342 342 341 336 331 332 328 341 338 337 333 328 328 341 336 327 305 288 277 268 261 251 245
333 333 330 330 330 333 335 333 333 331 333 331 334 332 331 333 333 335 333 337 337 340 336 335 330 346 349 347 345 343 340 358 353 346 347 343 335 313 298 283 273 265
330 328 325 323 324 326 326 325 327 326 326 325 331 325 327 330 332 337 337 341 339 345 343 342 342 350 350 347 349 347 4 6 0 354 349 345 344 345 330 312 294 276
325 323 322 320 320 320 319 319 322 322 323 325 330 325 331 336 335 333 331 338 343 347 345 342 339 343 347 345 346 345 2 5 356 359 348 350 347 349 344 341 340 326
315 320 318 320 321 318 317 314 311 307 312 324 326 325 329 328 326 327 330 338 348 341 337 344 331 335 343 343 346 345 352 4 355 356 337 339 338 336 335 331 327 332
314 317 319 320 320 316 318 315 314 313 308 317 316 320 315 318 329 333 330 335 340 331 336 346 330 332 340 344 346 346 347 359 355 350 333 329 327 323 322 323 318 324
319 319 318 321 319 319 319 317 313 315 323 323 320 325 322 326 328 333 333 328 329 332 331 338 337 331 334 346 348 348 346 350 352 342 326 317 311 307 322 322 324 316